{"data":{"norad_id":63772,"epoch":"2026-05-25T02:58:54.541632Z","epoch_age_seconds":64455,"freshness":"FRESH","line1":"1 63772U 25090A   26145.12424238  .00000475  00000+0  92205-4 0  9992","line2":"2 63772  98.0749 332.7739 0001470  88.4579 271.6794 14.67535650 57304","mean_motion":14.6753565,"eccentricity":0.000147,"inclination_deg":98.0749,"raan_deg":332.7739,"arg_perigee_deg":88.4579,"mean_anomaly_deg":271.6794,"bstar":9.2205e-5,"rev_number":5730,"period_min":98.123681015858,"perigee_km":667.91031620043,"apogee_km":669.98215867224,"semimajor_km":7047.0832374363,"source":"CELESTRAK","updated_at":"2026-05-25T13:38:12.838405Z"}}